Regional Weather Roundup
Issued by NWS

Home | Current Version | Previous Version | Text Only | Print | Product List | Glossary Off
Versions: 1 2 3 4 5 6 7 8 9 10 11 12 13 14 15 16 17 18 19 20 21 22 23 24 25 26 27 28 29 30 31 32 33 34 35 36 37 38 39 40 41 42 43 44 45 46 47 48 49 50

000
ASUS43 KDMX 261706
RWRIA

WEATHER ROUNDUP FOR IOWA
NATIONAL WEATHER SERVICE DES MOINES IA
1200 PM CDT THU APR 26 2018

NOTE: "FAIR" INDICATES FEW OR NO CLOUDS BELOW 12,000 FEET WITH NO
SIGNIFICANT WEATHER AND/OR OBSTRUCTIONS TO VISIBILITY.

* - THESE STATIONS ARE NOT NWS STATIONS...THUS NOT UNDER NWS
QUALITY CONTROL.  THEY ALSO DO NOT REPORT WEATHER SUCH
AS PRECIPITATION OR FOG.

IAZ001>003-012>014-020>022-031>034-043>046-261800-
   NORTHWEST IOWA

CITY           SKY/WX    TMP DP  RH WIND       PRES   REMARKS
CARROLL *      SUNNY     66  32  28 SW17G23   29.92F
CHEROKEE *     CLOUDY    59  37  44 NW12G21   29.95R
DENISON *      SUNNY     64  36  34 SW18      29.94F
LE MARS *      MOSUNNY   59  37  44 N15G25    29.96R
ORANGE CITY *  CLOUDY    57  41  54 N15G21    29.96R
SHELDON *      CLOUDY    57  39  51 N24G31    29.94R
SIOUX CITY     CLOUDY    60  39  45 N18G24    29.95R
SPENCER        CLOUDY    58  38  47 NW13G22   29.93R
STORM LAKE *   SUNNY     61  37  41 W20       29.93R
$$

IAZ055>058-069>071-079>083-090>094-261800-
   SOUTHWEST IOWA

CITY           SKY/WX    TMP DP  RH WIND       PRES   REMARKS
ATLANTIC *     MOSUNNY   64  34  32 W13G23    29.95F
AUDUBON *      MOSUNNY   64  30  27 SW12G21   29.96R
CLARINDA *     PTSUNNY   61  37  41 SW10      30.01S
COUNCIL BLFS * MOSUNNY   61  37  41 W10G17    29.97R
CRESTON *      MOSUNNY   63  34  34 SW12G17   29.99S
HARLAN  *      SUNNY     63  34  34 SW16      29.98S
LAMONI         CLOUDY    63  34  33 W7        29.98R
RED OAK *      CLOUDY    63  34  34 SW13      29.97F
SHENANDOAH *   CLOUDY    61  39  44 SW12G17   29.99F
$$

IAZ047>049-059>061-072>074-084-261800-
   CENTRAL IOWA

CITY           SKY/WX    TMP DP  RH WIND       PRES   REMARKS
AMES           MOSUNNY   66  31  27 SW15      29.93F
ANKENY *       SUNNY     64  32  29 SW12      29.96S
BOONE *        MOSUNNY   64  30  27 W15G23    29.93S
CHARITON *     CLOUDY    64  32  29 MISG      29.96F
DES MOINES     CLOUDY    65  32  29 W9        29.95F
GRINNELL*      SUNNY     64  29  26 W8        29.95F
KNOXVILLE *    SUNNY     64  28  25 CALM      29.94F
MARSHALLTOWN   SUNNY     65  34  31 SW12      29.93S
NEWTON *       SUNNY     64  28  25 W9G20     29.94F
PELLA *        SUNNY     64  31  28 W7        29.96F
PERRY *        FAIR      65  24  21 SW14G23   29.94S
$$

IAZ004>006-015-016-023>025-035-036-261800-
   NORTH CENTRAL IOWA

CITY           SKY/WX    TMP DP  RH WIND       PRES   REMARKS
ALGONA *       SUNNY     61  37  41 W18G25    29.92R
CLARION *      MOSUNNY   64  30  27 W14G20    29.91F
ESTHERVILLE    CLOUDY    54  41  61 NW18      29.91R
FORT DODGE *   MOSUNNY   65  34  31 SW13G23   29.92S
MASON CITY     CLOUDY    62  34  35 W15       29.92S
FOREST CITY *  FAIR      61  36  39 W10       29.91R
WEBSTER CITY * SUNNY     64  30  27 W13G22    29.90F
IOWA FALLS *   FAIR      65  32  29 W14G21    29.94S
$$

IAZ007>011-017>019-026>030-037>042-050>054-066-261800-
   NORTHEAST IOWA

CITY           SKY/WX    TMP DP  RH WIND       PRES   REMARKS
CEDAR RAPIDS   FAIR      65  30  27 W10       29.93F
CHARLES CITY * FAIR      63  34  34 W18G24    29.91F
CLINTON *      FAIR      62  35  36 W10       29.94F
DECORAH *      FAIR      63  34  34 SW9       29.89F
DUBUQUE        FAIR      60  33  36 W12       29.94S
MONTICELLO *   FAIR      64  30  27 W9G16     29.93F
OELWEIN *      FAIR      64  34  32 W12       29.93S
WATERLOO       FAIR      65  34  31 SW14      29.92F
$$

IAZ064-065-067-068-078-261800-
   EAST CENTRAL IOWA

CITY           SKY/WX    TMP DP  RH WIND       PRES   REMARKS
DAVENPORT      FAIR      63  33  32 VRB5G17   29.96F
IOWA CITY      FAIR      66  32  28 MISG      29.95F
MT. PLEASANT * CLOUDY    64  28  25 CALM      29.96S
MUSCATINE *    FAIR      66  28  24 NW10G16   29.95F
QUAD CITIES    FAIR      65  34  31 NW6       29.94F
$$

IAZ062-063-075>077-085>089-095>099-261800-
   SOUTHEAST IOWA

CITY           SKY/WX    TMP DP  RH WIND       PRES   REMARKS
BURLINGTON     CLOUDY    64  31  28 CALM      29.95F
FAIRFIELD *    SUNNY     66  27  22 SW8G16    29.95S
FORT MADISON * MOSUNNY   64  34  32 W5        29.96F
KEOKUK *       CLOUDY    64  32  29 VRB5      29.96S
OSKALOOSA *    FAIR      66  27  23 W9G17     29.96S
CENTERVILLE *  FAIR      66  28  24 CALM      29.98S
OTTUMWA        CLOUDY    66  28  24 SW9       29.95F
WASHINGTON *   CLOUDY    66  30  26 W8G14     29.96S
$$

ABBREVIATIONS USED IN REMARKS
   TC - TEMPERATURES IN CELSIUS
  WCI - WIND CHILL INDEX
   HX - HEAT INDEX
  VSB - VISIBILITY
$$




USA.gov is the U.S. government's official web portal to all federal, state and local government web resources and services.